Location: Rowland
(34.5359°N, 79.2929°W)
Time: 14:22:31
(UTC+00:00)

SR - Pass Details

Date: 08 October 2022
Orbit: 577 x 875 km, 66.7° (Epoch: 28 November)

Event Time Altitude Azimuth Distance (km) Brightness Sun altitude
Rises 09:29:34 0° 340° (NNW) 3,274 ? -22.9°
Reaches altitude 10° 09:32:13 10° 347° (NNW) 2,293 ? -22.4°
Maximum altitude 09:37:08 41° 58° (ENE) 1,034 ? -21.4°
Drops below altitude 10° 09:41:38 10° 128° (SE) 2,094 ? -20.5°
Sets 09:43:56 0° 136° (SE) 2,958 ? -20.0°
